Year,Month,Day,Hour,Minute,Value (Times are PST for windspeed in km/hr)
2008,02,29,00,00,4.10
2008,02,29,00,01,6.60
2008,02,29,00,02,5.60
2008,02,29,00,03,7.20
2008,02,29,00,04,5.30
2008,02,29,00,05,3.30
2008,02,29,00,06,4.30
2008,02,29,00,07,4.70
2008,02,29,00,08,5.60
2008,02,29,00,09,4.40
2008,02,29,00,10,5.30
2008,02,29,00,11,6.10
2008,02,29,00,12,6.00
2008,02,29,00,13,5.50
2008,02,29,00,14,5.10
2008,02,29,00,15,2.80
2008,02,29,00,16,3.30
2008,02,29,00,17,3.00
2008,02,29,00,18,4.70
2008,02,29,00,19,4.30
2008,02,29,00,20,1.60
2008,02,29,00,21,0.20
2008,02,29,00,22,0.20
2008,02,29,00,23,0.00
2008,02,29,00,24,0.00
2008,02,29,00,25,0.00
2008,02,29,00,26,0.00
2008,02,29,00,27,0.00
2008,02,29,00,28,0.00
2008,02,29,00,29,0.00
2008,02,29,00,30,0.00
2008,02,29,00,31,0.00
2008,02,29,00,32,0.00
2008,02,29,00,33,0.00
2008,02,29,00,34,1.30
2008,02,29,00,35,0.80
2008,02,29,00,36,0.10
2008,02,29,00,37,0.70
2008,02,29,00,38,1.50
2008,02,29,00,39,0.00
2008,02,29,00,40,0.00
2008,02,29,00,41,0.10
2008,02,29,00,42,0.60
2008,02,29,00,43,2.80
2008,02,29,00,44,2.00
2008,02,29,00,45,2.30
2008,02,29,00,46,2.50
2008,02,29,00,47,2.10
2008,02,29,00,48,2.60
2008,02,29,00,49,3.00
2008,02,29,00,50,3.00
2008,02,29,00,51,3.00
2008,02,29,00,52,2.60
2008,02,29,00,53,2.60
2008,02,29,00,54,0.20
2008,02,29,00,55,0.00
2008,02,29,00,56,1.10
2008,02,29,00,57,1.10
2008,02,29,00,58,0.40
2008,02,29,00,59,0.40
2008,02,29,01,00,0.10
2008,02,29,01,01,0.10
2008,02,29,01,02,0.00
2008,02,29,01,03,0.00
2008,02,29,01,04,0.00
2008,02,29,01,05,0.00
2008,02,29,01,06,0.00
2008,02,29,01,07,0.00
2008,02,29,01,08,0.00
2008,02,29,01,09,0.00
2008,02,29,01,10,0.00
2008,02,29,01,11,0.00
2008,02,29,01,12,0.00
2008,02,29,01,13,0.00
2008,02,29,01,14,0.00
2008,02,29,01,15,0.00
2008,02,29,01,16,0.00
2008,02,29,01,17,0.00
2008,02,29,01,18,0.20
2008,02,29,01,19,0.00
2008,02,29,01,20,0.00
2008,02,29,01,21,0.00
2008,02,29,01,22,0.00
2008,02,29,01,23,0.00
2008,02,29,01,24,0.00
2008,02,29,01,25,0.00
2008,02,29,01,26,0.00
2008,02,29,01,27,0.00
2008,02,29,01,28,0.90
2008,02,29,01,29,0.40
2008,02,29,01,30,0.00
2008,02,29,01,31,0.00
2008,02,29,01,32,0.30
2008,02,29,01,33,0.10
2008,02,29,01,34,1.30
2008,02,29,01,35,1.40
2008,02,29,01,36,1.10
2008,02,29,01,37,1.90
2008,02,29,01,38,1.90
2008,02,29,01,39,1.60
2008,02,29,01,40,1.20
2008,02,29,01,41,0.00
2008,02,29,01,42,0.30
2008,02,29,01,43,0.20
2008,02,29,01,44,1.40
2008,02,29,01,45,3.80
2008,02,29,01,46,4.10
2008,02,29,01,47,3.60
2008,02,29,01,48,3.10
2008,02,29,01,49,4.00
2008,02,29,01,50,2.60
2008,02,29,01,51,1.00
2008,02,29,01,52,0.30
2008,02,29,01,53,0.00
2008,02,29,01,54,0.00
2008,02,29,01,55,0.20
2008,02,29,01,56,0.30
2008,02,29,01,57,0.10
2008,02,29,01,58,0.00
2008,02,29,01,59,0.00
2008,02,29,02,00,0.00
2008,02,29,02,01,0.30
2008,02,29,02,02,1.40
2008,02,29,02,03,2.30
2008,02,29,02,04,2.70
2008,02,29,02,05,0.50
2008,02,29,02,06,1.90
2008,02,29,02,07,0.20
2008,02,29,02,08,2.70
2008,02,29,02,09,1.70
2008,02,29,02,10,3.60
2008,02,29,02,11,3.10
2008,02,29,02,12,0.90
2008,02,29,02,13,4.70
2008,02,29,02,14,4.00
2008,02,29,02,15,3.50
2008,02,29,02,16,5.30
2008,02,29,02,17,2.70
2008,02,29,02,18,1.90
2008,02,29,02,19,3.30
2008,02,29,02,20,2.90
2008,02,29,02,21,2.20
2008,02,29,02,22,2.40
2008,02,29,02,23,3.40
2008,02,29,02,24,3.20
2008,02,29,02,25,2.60
2008,02,29,02,26,1.00
2008,02,29,02,27,2.30
2008,02,29,02,28,2.40
2008,02,29,02,29,3.40
2008,02,29,02,30,1.30
2008,02,29,02,31,2.70
2008,02,29,02,32,3.70
2008,02,29,02,33,2.20
2008,02,29,02,34,3.00
2008,02,29,02,35,2.20
2008,02,29,02,36,0.80
2008,02,29,02,37,4.40
2008,02,29,02,38,3.40
2008,02,29,02,39,4.40
2008,02,29,02,40,4.40
2008,02,29,02,41,4.70
2008,02,29,02,42,4.10
2008,02,29,02,43,3.50
2008,02,29,02,44,4.50
2008,02,29,02,45,4.50
2008,02,29,02,46,4.90
2008,02,29,02,47,4.10
2008,02,29,02,48,5.00
2008,02,29,02,49,4.70
2008,02,29,02,50,4.40
2008,02,29,02,51,4.90
2008,02,29,02,52,4.20
2008,02,29,02,53,4.50
2008,02,29,02,54,3.00
2008,02,29,02,55,4.70
2008,02,29,02,56,4.50
2008,02,29,02,57,4.20
2008,02,29,02,58,4.60
2008,02,29,02,59,4.30
2008,02,29,03,00,2.30
2008,02,29,03,01,3.40
2008,02,29,03,02,3.40
2008,02,29,03,03,4.90
2008,02,29,03,04,3.00
2008,02,29,03,05,2.30
2008,02,29,03,06,2.40
2008,02,29,03,07,4.10
2008,02,29,03,08,0.60
2008,02,29,03,09,0.90
2008,02,29,03,10,1.30
2008,02,29,03,11,0.20
2008,02,29,03,12,0.10
2008,02,29,03,13,0.20
2008,02,29,03,14,0.00
2008,02,29,03,15,0.00
2008,02,29,03,16,0.00
2008,02,29,03,17,0.10
2008,02,29,03,18,0.00
2008,02,29,03,19,0.00
2008,02,29,03,20,0.10
2008,02,29,03,21,0.00
2008,02,29,03,22,0.00
2008,02,29,03,23,0.00
2008,02,29,03,24,0.00
2008,02,29,03,25,0.00
2008,02,29,03,26,0.00
2008,02,29,03,27,0.00
2008,02,29,03,28,0.00
2008,02,29,03,29,0.00
2008,02,29,03,30,0.20
2008,02,29,03,31,0.00
2008,02,29,03,32,0.00
2008,02,29,03,33,0.20
2008,02,29,03,34,0.10
2008,02,29,03,35,0.10
2008,02,29,03,36,0.10
2008,02,29,03,37,0.50
2008,02,29,03,38,0.20
2008,02,29,03,39,0.00
2008,02,29,03,40,0.00
2008,02,29,03,41,0.00
2008,02,29,03,42,0.00
2008,02,29,03,43,0.10
2008,02,29,03,44,0.00
2008,02,29,03,45,0.00
2008,02,29,03,46,0.00
2008,02,29,03,47,0.00
2008,02,29,03,48,0.00
2008,02,29,03,49,0.10
2008,02,29,03,50,0.10
2008,02,29,03,51,0.00
2008,02,29,03,52,0.00
2008,02,29,03,53,0.10
2008,02,29,03,54,0.80
2008,02,29,03,55,0.10
2008,02,29,03,56,0.40
2008,02,29,03,57,2.30
2008,02,29,03,58,2.00
2008,02,29,03,59,1.20
2008,02,29,04,00,1.40
2008,02,29,04,01,1.00
2008,02,29,04,02,1.70
2008,02,29,04,03,3.50
2008,02,29,04,04,1.90
2008,02,29,04,05,4.30
2008,02,29,04,06,4.40
2008,02,29,04,07,3.80
2008,02,29,04,08,3.80
2008,02,29,04,09,3.80
2008,02,29,04,10,3.10
2008,02,29,04,11,3.20
2008,02,29,04,12,3.90
2008,02,29,04,13,4.40
2008,02,29,04,14,5.80
2008,02,29,04,15,4.60
2008,02,29,04,16,6.00
2008,02,29,04,17,7.90
2008,02,29,04,18,6.90
2008,02,29,04,19,5.20
2008,02,29,04,20,5.60
2008,02,29,04,21,1.40
2008,02,29,04,22,0.30
2008,02,29,04,23,3.40
2008,02,29,04,24,2.20
2008,02,29,04,25,2.10
2008,02,29,04,26,3.10
2008,02,29,04,27,3.50
2008,02,29,04,28,4.50
2008,02,29,04,29,4.30
2008,02,29,04,30,3.50
2008,02,29,04,31,2.90
2008,02,29,04,32,4.30
2008,02,29,04,33,5.10
2008,02,29,04,34,3.80
2008,02,29,04,35,2.60
2008,02,29,04,36,2.20
2008,02,29,04,37,0.60
2008,02,29,04,38,2.40
2008,02,29,04,39,4.10
2008,02,29,04,40,2.30
2008,02,29,04,41,0.10
2008,02,29,04,42,0.10
2008,02,29,04,43,0.00
2008,02,29,04,44,0.70
2008,02,29,04,45,0.00
2008,02,29,04,46,0.00
2008,02,29,04,47,0.00
2008,02,29,04,48,0.10
2008,02,29,04,49,0.50
2008,02,29,04,50,0.00
2008,02,29,04,51,0.10
2008,02,29,04,52,0.00
2008,02,29,04,53,0.00
2008,02,29,04,54,0.00
2008,02,29,04,55,0.00
2008,02,29,04,56,0.80
2008,02,29,04,57,3.30
2008,02,29,04,58,3.40
2008,02,29,04,59,3.90
2008,02,29,05,00,4.10
2008,02,29,05,01,4.40
2008,02,29,05,02,3.70
2008,02,29,05,03,4.70
2008,02,29,05,04,2.90
2008,02,29,05,05,0.90
2008,02,29,05,06,1.90
2008,02,29,05,07,3.50
2008,02,29,05,08,1.40
2008,02,29,05,09,2.20
2008,02,29,05,10,3.10
2008,02,29,05,11,2.50
2008,02,29,05,12,3.10
2008,02,29,05,13,2.60
2008,02,29,05,14,3.50
2008,02,29,05,15,4.10
2008,02,29,05,16,1.40
2008,02,29,05,17,2.30
2008,02,29,05,18,1.80
2008,02,29,05,19,4.30
2008,02,29,05,20,5.20
2008,02,29,05,21,6.90
2008,02,29,05,22,6.40
2008,02,29,05,23,3.60
2008,02,29,05,24,2.60
2008,02,29,05,25,4.90
2008,02,29,05,26,3.40
2008,02,29,05,27,2.20
2008,02,29,05,28,1.90
2008,02,29,05,29,3.20
2008,02,29,05,30,3.80
2008,02,29,05,31,3.80
2008,02,29,05,32,3.80
2008,02,29,05,33,6.10
2008,02,29,05,34,7.50
2008,02,29,05,35,5.50
2008,02,29,05,36,6.30
2008,02,29,05,37,5.30
2008,02,29,05,38,3.20
2008,02,29,05,39,3.20
2008,02,29,05,40,3.00
2008,02,29,05,41,0.30
2008,02,29,05,42,0.00
2008,02,29,05,43,0.00
2008,02,29,05,44,0.00
2008,02,29,05,45,0.00
2008,02,29,05,46,0.00
2008,02,29,05,47,0.00
2008,02,29,05,48,0.00
2008,02,29,05,49,0.00
2008,02,29,05,50,0.00
2008,02,29,05,51,0.00
2008,02,29,05,52,0.00
2008,02,29,05,53,0.00
2008,02,29,05,54,0.00
2008,02,29,05,55,0.30
2008,02,29,05,56,1.00
2008,02,29,05,57,0.00
2008,02,29,05,58,2.00
2008,02,29,05,59,0.90
2008,02,29,06,00,0.00
2008,02,29,06,01,0.00
2008,02,29,06,02,0.00
2008,02,29,06,03,0.00
2008,02,29,06,04,0.00
2008,02,29,06,05,0.30
2008,02,29,06,06,1.50
2008,02,29,06,07,5.30
2008,02,29,06,08,5.90
2008,02,29,06,09,5.30
2008,02,29,06,10,0.80
2008,02,29,06,11,1.00
2008,02,29,06,12,2.00
2008,02,29,06,13,0.70
2008,02,29,06,14,1.60
2008,02,29,06,15,2.30
2008,02,29,06,16,1.00
2008,02,29,06,17,3.10
2008,02,29,06,18,1.60
2008,02,29,06,19,3.80
2008,02,29,06,20,2.60
2008,02,29,06,21,3.00
2008,02,29,06,22,1.80
2008,02,29,06,23,1.30
2008,02,29,06,24,3.70
2008,02,29,06,25,1.40
2008,02,29,06,26,1.40
2008,02,29,06,27,2.70
2008,02,29,06,28,2.90
2008,02,29,06,29,2.00
2008,02,29,06,30,4.00
2008,02,29,06,31,3.80
2008,02,29,06,32,3.40
2008,02,29,06,33,2.70
2008,02,29,06,34,1.60
2008,02,29,06,35,0.80
2008,02,29,06,36,2.90
2008,02,29,06,37,1.50
2008,02,29,06,38,0.70
2008,02,29,06,39,0.80
2008,02,29,06,40,1.10
2008,02,29,06,41,0.00
2008,02,29,06,42,0.10
2008,02,29,06,43,0.10
2008,02,29,06,44,0.10
2008,02,29,06,45,0.10
2008,02,29,06,46,2.40
2008,02,29,06,47,2.30
2008,02,29,06,48,1.80
2008,02,29,06,49,1.40
2008,02,29,06,50,0.10
2008,02,29,06,51,0.80
2008,02,29,06,52,4.30
2008,02,29,06,53,6.00
2008,02,29,06,54,2.30
2008,02,29,06,55,0.90
2008,02,29,06,56,0.50
2008,02,29,06,57,1.40
2008,02,29,06,58,2.10
2008,02,29,06,59,3.10
2008,02,29,07,00,1.00
2008,02,29,07,01,0.60
2008,02,29,07,02,0.50
2008,02,29,07,03,0.10
2008,02,29,07,04,0.40
2008,02,29,07,05,0.60
2008,02,29,07,06,1.90
2008,02,29,07,07,0.90
2008,02,29,07,08,0.20
2008,02,29,07,09,0.00
2008,02,29,07,10,0.00
2008,02,29,07,11,0.00
2008,02,29,07,12,0.00
2008,02,29,07,13,0.00
2008,02,29,07,14,0.10
2008,02,29,07,15,0.00
2008,02,29,07,16,0.00
2008,02,29,07,17,1.40
2008,02,29,07,18,2.60
2008,02,29,07,19,1.40
2008,02,29,07,20,0.80
2008,02,29,07,21,1.10
2008,02,29,07,22,2.00
2008,02,29,07,23,4.20
2008,02,29,07,24,3.30
2008,02,29,07,25,2.70
2008,02,29,07,26,1.20
2008,02,29,07,27,2.00
2008,02,29,07,28,2.20
2008,02,29,07,29,1.50
2008,02,29,07,30,2.50
2008,02,29,07,31,3.80
2008,02,29,07,32,4.10
2008,02,29,07,33,1.80
2008,02,29,07,34,1.60
2008,02,29,07,35,2.50
2008,02,29,07,36,3.80
2008,02,29,07,37,3.10
2008,02,29,07,38,3.30
2008,02,29,07,39,2.50
2008,02,29,07,40,1.80
2008,02,29,07,41,1.00
2008,02,29,07,42,0.30
2008,02,29,07,43,0.40
2008,02,29,07,44,0.00
2008,02,29,07,45,0.30
2008,02,29,07,46,2.40
2008,02,29,07,47,2.60
2008,02,29,07,48,2.90
2008,02,29,07,49,1.40
2008,02,29,07,50,3.50
2008,02,29,07,51,2.10
2008,02,29,07,52,1.80
2008,02,29,07,53,1.40
2008,02,29,07,54,0.30
2008,02,29,07,55,2.20
2008,02,29,07,56,1.60
2008,02,29,07,57,0.40
2008,02,29,07,58,0.00
2008,02,29,07,59,0.10
2008,02,29,08,00,0.00
2008,02,29,08,01,0.00
2008,02,29,08,02,0.00
2008,02,29,08,03,0.00
2008,02,29,08,04,0.00
2008,02,29,08,05,0.00
2008,02,29,08,06,0.00
2008,02,29,08,07,0.00
2008,02,29,08,08,0.00
2008,02,29,08,09,0.00
2008,02,29,08,10,0.00
2008,02,29,08,11,0.20
2008,02,29,08,12,0.20
2008,02,29,08,13,0.00
2008,02,29,08,14,0.00
2008,02,29,08,15,0.00
2008,02,29,08,16,0.00
2008,02,29,08,17,0.00
2008,02,29,08,18,0.10
2008,02,29,08,19,0.10
2008,02,29,08,20,0.10
2008,02,29,08,21,0.20
2008,02,29,08,22,0.60
2008,02,29,08,23,2.10
2008,02,29,08,24,1.50
2008,02,29,08,25,0.30
2008,02,29,08,26,1.60
2008,02,29,08,27,0.20
2008,02,29,08,28,0.20
2008,02,29,08,29,0.00
2008,02,29,08,30,0.00
2008,02,29,08,31,0.10
2008,02,29,08,32,0.10
2008,02,29,08,33,0.00
2008,02,29,08,34,0.10
2008,02,29,08,35,0.20
2008,02,29,08,36,0.60
2008,02,29,08,37,0.60
2008,02,29,08,38,0.50
2008,02,29,08,39,0.00
2008,02,29,08,40,0.60
2008,02,29,08,41,0.20
2008,02,29,08,42,0.00
2008,02,29,08,43,0.80
2008,02,29,08,44,1.80
2008,02,29,08,45,0.30
2008,02,29,08,46,0.10
2008,02,29,08,47,0.60
2008,02,29,08,48,3.10
2008,02,29,08,49,1.80
2008,02,29,08,50,1.90
2008,02,29,08,51,3.10
2008,02,29,08,52,1.90
2008,02,29,08,53,3.30
2008,02,29,08,54,2.90
2008,02,29,08,55,1.90
2008,02,29,08,56,3.00
2008,02,29,08,57,0.50
2008,02,29,08,58,1.50
2008,02,29,08,59,2.60
2008,02,29,09,00,2.20
2008,02,29,09,01,0.60
2008,02,29,09,02,2.50
2008,02,29,09,03,3.80
2008,02,29,09,04,3.90
2008,02,29,09,05,6.90
2008,02,29,09,06,7.10
2008,02,29,09,07,6.10
2008,02,29,09,08,7.20
2008,02,29,09,09,4.50
2008,02,29,09,10,6.70
2008,02,29,09,11,3.30
2008,02,29,09,12,5.10
2008,02,29,09,13,6.20
2008,02,29,09,14,5.40
2008,02,29,09,15,7.70
2008,02,29,09,16,7.70
2008,02,29,09,17,6.70
2008,02,29,09,18,5.60
2008,02,29,09,19,4.70
2008,02,29,09,20,3.90
2008,02,29,09,21,4.50
2008,02,29,09,22,6.80
2008,02,29,09,23,5.70
2008,02,29,09,24,3.90
2008,02,29,09,25,1.80
2008,02,29,09,26,2.20
2008,02,29,09,27,2.10
2008,02,29,09,28,1.20
2008,02,29,09,29,0.40
2008,02,29,09,30,0.10
2008,02,29,09,31,0.80
2008,02,29,09,32,3.80
2008,02,29,09,33,3.00
2008,02,29,09,34,2.20
2008,02,29,09,35,1.60
2008,02,29,09,36,1.90
2008,02,29,09,37,2.80
2008,02,29,09,38,2.60
2008,02,29,09,39,3.30
2008,02,29,09,40,3.00
2008,02,29,09,41,2.80
2008,02,29,09,42,3.30
2008,02,29,09,43,0.30
2008,02,29,09,44,2.20
2008,02,29,09,45,1.80
2008,02,29,09,46,1.40
2008,02,29,09,47,0.90
2008,02,29,09,48,3.30
2008,02,29,09,49,3.40
2008,02,29,09,50,2.90
2008,02,29,09,51,3.00
2008,02,29,09,52,3.10
2008,02,29,09,53,2.50
2008,02,29,09,54,4.20
2008,02,29,09,55,4.80
2008,02,29,09,56,4.70
2008,02,29,09,57,3.00
2008,02,29,09,58,3.00
2008,02,29,09,59,0.40
2008,02,29,10,00,1.50
2008,02,29,10,01,1.50
2008,02,29,10,02,0.70
2008,02,29,10,03,0.00
2008,02,29,10,04,0.10
2008,02,29,10,05,6.50
2008,02,29,10,06,3.70
2008,02,29,10,07,1.50
2008,02,29,10,08,1.30
2008,02,29,10,09,4.20
2008,02,29,10,10,5.30
2008,02,29,10,11,4.70
2008,02,29,10,12,2.90
2008,02,29,10,13,4.90
2008,02,29,10,14,5.50
2008,02,29,10,15,2.80
2008,02,29,10,16,2.10
2008,02,29,10,17,3.80
2008,02,29,10,18,4.30
2008,02,29,10,19,5.20
2008,02,29,10,20,0.60
2008,02,29,10,21,1.50
2008,02,29,10,22,2.20
2008,02,29,10,23,4.00
2008,02,29,10,24,4.80
2008,02,29,10,25,5.60
2008,02,29,10,26,5.40
2008,02,29,10,27,3.80
2008,02,29,10,28,3.80
2008,02,29,10,29,1.30
2008,02,29,10,30,0.20
2008,02,29,10,31,0.40
2008,02,29,10,32,1.80
2008,02,29,10,33,4.80
2008,02,29,10,34,3.30
2008,02,29,10,35,7.20
2008,02,29,10,36,9.20
2008,02,29,10,37,6.30
2008,02,29,10,38,5.30
2008,02,29,10,39,5.20
2008,02,29,10,40,4.70
2008,02,29,10,41,4.40
2008,02,29,10,42,7.10
2008,02,29,10,43,6.50
2008,02,29,10,44,3.90
2008,02,29,10,45,1.10
2008,02,29,10,46,4.30
2008,02,29,10,47,5.10
2008,02,29,10,48,4.20
2008,02,29,10,49,5.00
2008,02,29,10,50,4.10
2008,02,29,10,51,3.90
2008,02,29,10,52,5.10
2008,02,29,10,53,7.60
2008,02,29,10,54,7.30
2008,02,29,10,55,7.80
2008,02,29,10,56,5.20
2008,02,29,10,57,4.50
2008,02,29,10,58,2.90
2008,02,29,10,59,5.70
2008,02,29,11,00,4.40
2008,02,29,11,01,0.20
2008,02,29,11,02,1.30
2008,02,29,11,03,2.50
2008,02,29,11,04,7.30
2008,02,29,11,05,6.40
2008,02,29,11,06,4.80
2008,02,29,11,07,4.10
2008,02,29,11,08,6.30
2008,02,29,11,09,3.00
2008,02,29,11,10,0.20
2008,02,29,11,11,1.00
2008,02,29,11,12,2.20
2008,02,29,11,13,5.00
2008,02,29,11,14,3.90
2008,02,29,11,15,2.80
2008,02,29,11,16,1.80
2008,02,29,11,17,3.80
2008,02,29,11,18,1.10
2008,02,29,11,19,0.10
2008,02,29,11,20,0.00
2008,02,29,11,21,1.10
2008,02,29,11,22,1.50
2008,02,29,11,23,3.00
2008,02,29,11,24,2.10
2008,02,29,11,25,0.80
2008,02,29,11,26,0.20
2008,02,29,11,27,0.10
2008,02,29,11,28,0.00
2008,02,29,11,29,0.70
2008,02,29,11,30,0.30
2008,02,29,11,31,0.20
2008,02,29,11,32,0.40
2008,02,29,11,33,2.00
2008,02,29,11,34,3.70
2008,02,29,11,35,1.50
2008,02,29,11,36,1.40
2008,02,29,11,37,2.50
2008,02,29,11,38,0.60
2008,02,29,11,39,0.10
2008,02,29,11,40,2.60
2008,02,29,11,41,4.80
2008,02,29,11,42,6.90
2008,02,29,11,43,5.00
2008,02,29,11,44,2.90
2008,02,29,11,45,1.00
2008,02,29,11,46,0.10
2008,02,29,11,47,4.90
2008,02,29,11,48,3.80
2008,02,29,11,49,3.70
2008,02,29,11,50,0.50
2008,02,29,11,51,2.70
2008,02,29,11,52,1.80
2008,02,29,11,53,0.20
2008,02,29,11,54,0.20
2008,02,29,11,55,3.00
2008,02,29,11,56,6.70
2008,02,29,11,57,1.00
2008,02,29,11,58,5.30
2008,02,29,11,59,4.70
2008,02,29,12,00,3.00
2008,02,29,12,01,2.50
2008,02,29,12,02,3.60
2008,02,29,12,03,2.90
2008,02,29,12,04,2.80
2008,02,29,12,05,2.20
2008,02,29,12,06,2.50
2008,02,29,12,07,2.70
2008,02,29,12,08,4.90
2008,02,29,12,09,2.20
2008,02,29,12,10,1.60
2008,02,29,12,11,0.10
2008,02,29,12,12,0.60
2008,02,29,12,13,6.50
2008,02,29,12,14,8.10
2008,02,29,12,15,0.30
2008,02,29,12,16,0.20
2008,02,29,12,17,3.20
2008,02,29,12,18,0.70
2008,02,29,12,19,1.80
2008,02,29,12,20,8.20
2008,02,29,12,21,8.20
2008,02,29,12,22,9.80
2008,02,29,12,23,6.90
2008,02,29,12,24,6.80
2008,02,29,12,25,5.30
2008,02,29,12,26,2.50
2008,02,29,12,27,1.90
2008,02,29,12,28,4.80
2008,02,29,12,29,3.80
2008,02,29,12,30,1.60
2008,02,29,12,31,0.70
2008,02,29,12,32,5.60
2008,02,29,12,33,5.10
2008,02,29,12,34,7.30
2008,02,29,12,35,6.80
2008,02,29,12,36,7.40
2008,02,29,12,37,5.60
2008,02,29,12,38,4.20
2008,02,29,12,39,8.10
2008,02,29,12,40,2.70
2008,02,29,12,41,2.30
2008,02,29,12,42,5.10
2008,02,29,12,43,5.50
2008,02,29,12,44,5.70
2008,02,29,12,45,2.30
2008,02,29,12,46,1.70
2008,02,29,12,47,0.20
2008,02,29,12,48,2.40
2008,02,29,12,49,4.50
2008,02,29,12,50,4.40
2008,02,29,12,51,6.00
2008,02,29,12,52,6.80
2008,02,29,12,53,6.00
2008,02,29,12,54,5.30
2008,02,29,12,55,4.30
2008,02,29,12,56,5.20
2008,02,29,12,57,0.90
2008,02,29,12,58,2.90
2008,02,29,12,59,5.60
2008,02,29,13,00,3.80
2008,02,29,13,01,0.20
2008,02,29,13,02,0.20
2008,02,29,13,03,3.50
2008,02,29,13,04,6.70
2008,02,29,13,05,7.30
2008,02,29,13,06,6.30
2008,02,29,13,07,4.60
2008,02,29,13,08,5.00
2008,02,29,13,09,7.50
2008,02,29,13,10,8.00
2008,02,29,13,11,4.70
2008,02,29,13,12,1.90
2008,02,29,13,13,6.00
2008,02,29,13,14,7.20
2008,02,29,13,15,6.30
2008,02,29,13,16,7.50
2008,02,29,13,17,7.30
2008,02,29,13,18,5.10
2008,02,29,13,19,7.30
2008,02,29,13,20,5.90
2008,02,29,13,21,6.50
2008,02,29,13,22,5.50
2008,02,29,13,23,3.30
2008,02,29,13,24,5.30
2008,02,29,13,25,4.40
2008,02,29,13,26,5.40
2008,02,29,13,27,6.60
2008,02,29,13,28,4.10
2008,02,29,13,29,1.70
2008,02,29,13,30,0.60
2008,02,29,13,31,0.00
2008,02,29,13,32,0.00
2008,02,29,13,33,1.60
2008,02,29,13,34,1.90
2008,02,29,13,35,0.40
2008,02,29,13,36,1.00
2008,02,29,13,37,1.50
2008,02,29,13,38,0.00
2008,02,29,13,39,0.00
2008,02,29,13,40,0.20
2008,02,29,13,41,0.20
2008,02,29,13,42,0.30
2008,02,29,13,43,3.00
2008,02,29,13,44,2.90
2008,02,29,13,45,1.00
2008,02,29,13,46,3.10
2008,02,29,13,47,1.60
2008,02,29,13,48,2.70
2008,02,29,13,49,1.00
2008,02,29,13,50,5.70
2008,02,29,13,51,5.20
2008,02,29,13,52,6.20
2008,02,29,13,53,4.50
2008,02,29,13,54,4.70
2008,02,29,13,55,4.20
2008,02,29,13,56,5.10
2008,02,29,13,57,1.70
2008,02,29,13,58,1.60
2008,02,29,13,59,2.70
2008,02,29,14,00,8.40
2008,02,29,14,01,6.80
2008,02,29,14,02,7.40
2008,02,29,14,03,7.90
2008,02,29,14,04,9.00
2008,02,29,14,05,8.90
2008,02,29,14,06,13.50
2008,02,29,14,07,10.70
2008,02,29,14,08,9.30
2008,02,29,14,09,6.90
2008,02,29,14,10,6.80
2008,02,29,14,11,6.10
2008,02,29,14,12,6.40
2008,02,29,14,13,4.70
2008,02,29,14,14,5.50
2008,02,29,14,15,9.20
2008,02,29,14,16,9.70
2008,02,29,14,17,10.70
2008,02,29,14,18,7.20
2008,02,29,14,19,11.40
2008,02,29,14,20,10.10
2008,02,29,14,21,9.60
2008,02,29,14,22,9.20
2008,02,29,14,23,9.10
2008,02,29,14,24,8.80
2008,02,29,14,25,11.10
2008,02,29,14,26,12.40
2008,02,29,14,27,7.10
2008,02,29,14,28,7.00
2008,02,29,14,29,6.80
2008,02,29,14,30,8.60
2008,02,29,14,31,9.70
2008,02,29,14,32,10.60
2008,02,29,14,33,9.60
2008,02,29,14,34,10.10
2008,02,29,14,35,6.40
2008,02,29,14,36,10.10
2008,02,29,14,37,12.50
2008,02,29,14,38,11.00
2008,02,29,14,39,9.60
2008,02,29,14,40,13.00
2008,02,29,14,41,8.10
2008,02,29,14,42,9.00
2008,02,29,14,43,7.20
2008,02,29,14,44,8.70
2008,02,29,14,45,9.20
2008,02,29,14,46,8.70
2008,02,29,14,47,6.50
2008,02,29,14,48,7.20
2008,02,29,14,49,10.50
2008,02,29,14,50,8.10
2008,02,29,14,51,6.50
2008,02,29,14,52,8.50
2008,02,29,14,53,9.50
2008,02,29,14,54,10.30
2008,02,29,14,55,7.60
2008,02,29,14,56,6.60
2008,02,29,14,57,7.10
2008,02,29,14,58,7.20
2008,02,29,14,59,7.50
2008,02,29,15,00,8.30
2008,02,29,15,01,9.40
2008,02,29,15,02,9.40
2008,02,29,15,03,11.30
2008,02,29,15,04,9.80
2008,02,29,15,05,8.60
2008,02,29,15,06,9.20
2008,02,29,15,07,10.70
2008,02,29,15,08,11.50
2008,02,29,15,09,9.70
2008,02,29,15,10,9.20
2008,02,29,15,11,15.20
2008,02,29,15,12,9.60
2008,02,29,15,13,10.70
2008,02,29,15,14,16.80
2008,02,29,15,15,11.30
2008,02,29,15,16,15.20
2008,02,29,15,17,14.20
2008,02,29,15,18,15.90
2008,02,29,15,19,12.50
2008,02,29,15,20,10.50
2008,02,29,15,21,15.70
2008,02,29,15,22,16.60
2008,02,29,15,23,16.80
2008,02,29,15,24,9.80
2008,02,29,15,25,10.60
2008,02,29,15,26,9.00
2008,02,29,15,27,8.90
2008,02,29,15,28,7.80
2008,02,29,15,29,11.80
2008,02,29,15,30,6.50
2008,02,29,15,31,8.60
2008,02,29,15,32,9.10
2008,02,29,15,33,8.50
2008,02,29,15,34,9.10
2008,02,29,15,35,10.30
2008,02,29,15,36,12.00
2008,02,29,15,37,12.00
2008,02,29,15,38,13.90
2008,02,29,15,39,11.90
2008,02,29,15,40,8.80
2008,02,29,15,41,15.00
2008,02,29,15,42,11.30
2008,02,29,15,43,12.90
2008,02,29,15,44,13.30
2008,02,29,15,45,18.90
2008,02,29,15,46,19.10
2008,02,29,15,47,18.40
2008,02,29,15,48,14.70
2008,02,29,15,49,14.40
2008,02,29,15,50,22.90
2008,02,29,15,51,20.80
2008,02,29,15,52,22.60
2008,02,29,15,53,18.40
2008,02,29,15,54,12.30
2008,02,29,15,55,11.50
2008,02,29,15,56,10.00
2008,02,29,15,57,12.60
2008,02,29,15,58,11.90
2008,02,29,15,59,19.60
2008,02,29,16,00,17.70
2008,02,29,16,01,11.50
2008,02,29,16,02,10.10
2008,02,29,16,03,14.00
2008,02,29,16,04,13.60
2008,02,29,16,05,11.70
2008,02,29,16,06,7.90
2008,02,29,16,07,17.30
2008,02,29,16,08,8.70
2008,02,29,16,09,10.90
2008,02,29,16,10,12.50
2008,02,29,16,11,14.70
2008,02,29,16,12,17.20
2008,02,29,16,13,17.50
2008,02,29,16,14,17.10
2008,02,29,16,15,16.30
2008,02,29,16,16,13.10
2008,02,29,16,17,15.80
2008,02,29,16,18,17.20
2008,02,29,16,19,13.00
2008,02,29,16,20,10.40
2008,02,29,16,21,15.90
2008,02,29,16,22,7.80
2008,02,29,16,23,12.90
2008,02,29,16,24,17.60
2008,02,29,16,25,18.70
2008,02,29,16,26,15.70
2008,02,29,16,27,17.50
2008,02,29,16,28,14.50
2008,02,29,16,29,17.80
2008,02,29,16,30,15.40
2008,02,29,16,31,21.00
2008,02,29,16,32,15.00
2008,02,29,16,33,24.30
2008,02,29,16,34,18.20
2008,02,29,16,35,24.50
2008,02,29,16,36,20.80
2008,02,29,16,37,20.40
2008,02,29,16,38,23.50
2008,02,29,16,39,17.90
2008,02,29,16,40,14.20
2008,02,29,16,41,10.00
2008,02,29,16,42,8.60
2008,02,29,16,43,14.20
2008,02,29,16,44,12.60
2008,02,29,16,45,10.90
2008,02,29,16,46,11.00
2008,02,29,16,47,10.80
2008,02,29,16,48,16.30
2008,02,29,16,49,20.80
2008,02,29,16,50,18.80
2008,02,29,16,51,14.80
2008,02,29,16,52,15.40
2008,02,29,16,53,14.50
2008,02,29,16,54,17.40
2008,02,29,16,55,23.60
2008,02,29,16,56,18.70
2008,02,29,16,57,9.70
2008,02,29,16,58,13.40
2008,02,29,16,59,11.40
2008,02,29,17,00,12.10
2008,02,29,17,01,16.70
2008,02,29,17,02,18.00
2008,02,29,17,03,21.90
2008,02,29,17,04,19.60
2008,02,29,17,05,28.30
2008,02,29,17,06,18.20
2008,02,29,17,07,12.30
2008,02,29,17,08,15.10
2008,02,29,17,09,11.30
2008,02,29,17,10,14.20
2008,02,29,17,11,10.90
2008,02,29,17,12,20.80
2008,02,29,17,13,21.50
2008,02,29,17,14,17.90
2008,02,29,17,15,16.30
2008,02,29,17,16,15.90
2008,02,29,17,17,15.10
2008,02,29,17,18,14.80
2008,02,29,17,19,11.20
2008,02,29,17,20,11.10
2008,02,29,17,21,6.40
2008,02,29,17,22,13.50
2008,02,29,17,23,13.10
2008,02,29,17,24,7.40
2008,02,29,17,25,8.30
2008,02,29,17,26,9.80
2008,02,29,17,27,8.30
2008,02,29,17,28,6.90
2008,02,29,17,29,5.10
2008,02,29,17,30,8.30
2008,02,29,17,31,10.70
2008,02,29,17,32,13.80
2008,02,29,17,33,8.50
2008,02,29,17,34,9.70
2008,02,29,17,35,9.70
2008,02,29,17,36,8.60
2008,02,29,17,37,11.40
2008,02,29,17,38,9.00
2008,02,29,17,39,6.90
2008,02,29,17,40,9.90
2008,02,29,17,41,7.30
2008,02,29,17,42,11.40
2008,02,29,17,43,3.90
2008,02,29,17,44,7.60
2008,02,29,17,45,8.40
2008,02,29,17,46,11.10
2008,02,29,17,47,12.70
2008,02,29,17,48,11.40
2008,02,29,17,49,9.30
2008,02,29,17,50,7.70
2008,02,29,17,51,8.20
2008,02,29,17,52,5.40
2008,02,29,17,53,6.10
2008,02,29,17,54,9.10
2008,02,29,17,55,9.50
2008,02,29,17,56,6.60
2008,02,29,17,57,7.60
2008,02,29,17,58,8.40
2008,02,29,17,59,5.70
2008,02,29,18,00,6.30